QPF
0.01 0.01 0.02 0.02 0.03 0.04 0.05 0.06 0.06 0.03 0.03 0.03 0.04 0.03 0.02 0.02 0.03 0.03 0.04 0.04 0.03 0.05 0.06 0.05 0.04 0.02 0.02 0.04 0.08 0.11 0.11 0.09 0.07 0.07 0.07 0.08 0.07 0.07
0.01 0.01 0.01 0.01 0.02 0.02 0.03 0.05 0.05 0.05 0.04 0.02 0.03 0.02 0.02 0.02 0.02 0.02 0.03 0.04 0.03 0.03 0.05 0.05 0.03 0.02 0.02 0.02 0.02 0.03 0.05 0.05 0.06 0.06 0.05 0.04 0.05 0.06
0.01 0.01 0.01 0.01 0.01 0.01 0.02 0.03 0.03 0.04 0.04 0.03 0.01 0.02 0.02 0.02 0.02 0.02 0.03 0.03 0.02 0.03 0.03 0.04 0.04 0.03 0.03 0.03 0.02 0.02 0.02 0.03 0.03 0.03 0.04 0.03 0.03 0.03
0.01 0.01 0.00 0.00 0.01 0.01 0.01 0.02 0.03 0.03 0.03 0.03 0.02 0.01 0.02 0.02 0.01 0.01 0.01 0.02 0.02 0.02 0.03 0.03 0.03 0.03 0.03 0.03 0.03 0.03 0.04 0.04 0.04 0.03 0.03 0.03 0.03 0.03
0.01 0.01 0.01 0.00 0.01 0.01 0.01 0.02 0.02 0.03 0.04 0.04 0.04 0.04 0.02 0.02 0.02 0.01 0.01 0.02 0.02 0.02 0.04 0.04 0.03 0.03 0.03 0.03 0.03 0.02 0.03 0.03 0.04 0.05 0.05 0.04 0.04 0.03
0.00 0.01 0.01 0.01 0.01 0.01 0.02 0.02 0.01 0.03 0.04 0.04 0.04 0.05 0.04 0.03 0.03 0.03 0.02 0.03 0.03 0.02 0.03 0.03 0.04 0.04 0.03 0.03 0.03 0.03 0.03 0.04 0.04 0.04 0.04 0.04 0.04 0.03
0.00 0.00 0.00 0.01 0.01 0.01 0.01 0.02 0.02 0.03 0.04 0.03 0.03 0.04 0.06 0.05 0.03 0.03 0.03 0.03 0.03 0.02 0.03 0.03 0.03 0.04 0.04 0.04 0.04 0.04 0.04 0.04 0.04 0.04 0.04 0.04 0.04 0.04
0.00 0.00 0.00 0.00 0.01 0.01 0.01 0.02 0.02 0.02 0.03 0.04 0.03 0.04 0.05 0.05 0.04 0.04 0.05 0.05 0.04 0.03 0.04 0.03 0.03 0.03 0.04 0.04 0.04 0.04 0.05 0.05 0.04 0.04 0.05 0.05 0.06 0.06
0.00 0.00 0.00 0.00 0.00 0.00 0.00 0.01 0.01 0.01 0.02 0.03 0.04 0.04 0.05 0.05 0.05 0.05 0.05 0.05 0.04 0.05 0.05 0.04 0.04 0.03 0.02 0.03 0.03 0.04 0.05 0.05 0.06 0.06 0.06 0.05 0.06 0.07
0.00 0.00 0.00 0.01 0.00 0.00 0.00 0.01 0.02 0.02 0.01 0.01 0.02 0.03 0.04 0.04 0.05 0.04 0.05 0.05 0.05 0.05 0.06 0.04 0.03 0.03 0.02 0.03 0.03 0.03 0.04 0.05 0.05 0.06 0.06 0.07 0.07 0.08
0.00 0.00 0.00 0.01 0.00 0.00 0.01 0.01 0.02 0.02 0.01 0.01 0.01 0.02 0.02 0.03 0.04 0.05 0.05 0.05 0.04 0.03 0.04 0.05 0.03 0.03 0.03 0.03 0.02 0.03 0.03 0.04 0.05 0.06 0.07 0.07 0.09 0.11
0.00 0.00 0.00 0.00 0.00 0.00 0.00 0.01 0.01 0.01 0.01 0.01 0.01 0.01 0.01 0.02 0.02 0.04 0.06 0.06 0.05 0.04 0.05 0.06 0.05 0.06 0.04 0.02 0.02 0.03 0.03 0.04 0.05 0.06 0.07 0.09 0.12 0.14
0.00 0.00 0.00 0.00 0.00 0.00 0.00 0.01 0.01 0.01 0.01 0.01 0.01 0.01 0.01 0.02 0.02 0.03 0.05 0.06 0.07 0.05 0.05 0.06 0.07 0.07 0.06 0.04 0.02 0.03 0.03 0.04 0.05 0.06 0.07 0.10 0.14 0.16
0.00 0.00 0.00 0.00 0.00 0.00 0.00 0.00 0.00 0.00 0.01 0.02 0.02 0.02 0.02 0.02 0.03 0.03 0.04 0.04 0.04 0.05 0.05 0.06 0.06 0.06 0.07 0.05 0.04 0.03 0.04 0.05 0.07 0.07 0.07 0.09 0.11 0.14
0.00 0.00 0.00 0.00 0.00 0.00 0.00 0.00 0.00 0.01 0.01 0.01 0.02 0.03 0.03 0.04 0.04 0.04 0.04 0.04 0.04 0.04 0.04 0.04 0.05 0.06 0.07 0.07 0.06 0.06 0.06 0.06 0.06 0.07 0.07 0.07 0.07 0.09
0.00 0.00 0.00 0.00 0.00 0.00 0.00 0.00 0.00 0.00 0.01 0.01 0.01 0.01 0.02 0.03 0.05 0.06 0.06 0.06 0.05 0.05 0.05 0.04 0.05 0.05 0.06 0.06 0.06 0.06 0.06 0.06 0.06 0.07 0.08 0.08 0.08 0.08
0.00 0.00 0.00 0.00 0.00 0.00 0.00 0.00 0.00 0.00 0.00 0.01 0.01 0.01 0.02 0.03 0.04 0.04 0.05 0.05 0.06 0.06 0.06 0.05 0.05 0.05 0.05 0.05 0.05 0.04 0.04 0.05 0.05 0.07 0.09 0.09 0.09 0.08
0.00 0.00 0.00 0.00 0.00 0.00 0.00 0.00 0.00 0.00 0.01 0.00 0.00 0.01 0.01 0.01 0.02 0.03 0.03 0.03 0.03 0.04 0.05 0.05 0.05 0.05 0.05 0.04 0.04 0.04 0.04 0.04 0.04 0.06 0.07 0.08 0.08 0.07
0.00 0.00 0.00 0.00 0.00 0.00 0.00 0.00 0.00 0.00 0.00 0.00 0.01 0.00 0.00 0.01 0.01 0.02 0.02 0.03 0.03 0.03 0.04 0.05 0.05 0.05 0.06 0.05 0.04 0.04 0.04 0.04 0.05 0.05 0.05 0.05 0.06 0.06
0.00 0.00 0.00 0.00 0.00 0.00 0.00 0.00 0.00 0.00 0.00 0.00 0.00 0.00 0.00 0.01 0.01 0.01 0.02 0.03 0.02 0.02 0.03 0.04 0.05 0.06 0.07 0.06 0.05 0.04 0.04 0.04 0.05 0.05 0.04 0.04 0.06 0.06
0.00 0.00 0.01 0.01 0.01 0.01 0.01 0.01 0.00 0.00 0.00 0.00 0.00 0.00 0.00 0.01 0.01 0.01 0.01 0.02 0.02 0.03 0.03 0.03 0.04 0.06 0.05 0.06 0.05 0.03 0.02 0.03 0.04 0.05 0.05 0.06 0.06 0.06
0.00 0.00 0.00 0.01 0.01 0.01 0.01 0.01 0.00 0.00 0.00 0.00 0.00 0.00 0.00 0.00 0.01 0.01 0.01 0.01 0.02 0.02 0.02 0.02 0.03 0.04 0.05 0.06 0.06 0.04 0.03 0.03 0.03 0.04 0.05 0.05 0.05 0.05
0.00 0.00 0.00 0.00 0.00 0.00 0.00 0.00 0.00 0.00 0.00 0.00 0.00 0.00 0.00 0.00 0.00 0.00 0.01 0.01 0.01 0.01 0.02 0.02 0.03 0.03 0.03 0.04 0.05 0.04 0.04 0.03 0.03 0.04 0.04 0.04 0.05 0.04
MSLP
1013.92 1013.86 1013.78 1013.67 1013.51 1013.28 1012.99 1012.64 1012.27 1011.89 1011.53 1011.22 1010.96 1010.77 1010.63 1010.53 1010.47 1010.44 1010.44 1010.48 1010.56 1010.71 1010.91 1011.18 1011.51 1011.86 1012.24 1012.61 1012.97 1013.31 1013.63 1013.94 1014.26 1014.60 1014.97 1015.39 1015.83 1016.29
1013.73 1013.65 1013.57 1013.46 1013.30 1013.10 1012.83 1012.52 1012.19 1011.84 1011.51 1011.21 1010.95 1010.74 1010.56 1010.43 1010.32 1010.25 1010.22 1010.23 1010.31 1010.44 1010.64 1010.90 1011.21 1011.55 1011.90 1012.24 1012.57 1012.88 1013.17 1013.47 1013.78 1014.11 1014.49 1014.90 1015.34 1015.80
1013.44 1013.36 1013.27 1013.16 1013.02 1012.84 1012.61 1012.35 1012.07 1011.77 1011.47 1011.19 1010.94 1010.71 1010.50 1010.33 1010.19 1010.08 1010.01 1010.00 1010.06 1010.18 1010.36 1010.60 1010.88 1011.19 1011.51 1011.81 1012.11 1012.39 1012.66 1012.94 1013.25 1013.58 1013.95 1014.36 1014.80 1015.25
1013.13 1013.04 1012.95 1012.84 1012.72 1012.57 1012.39 1012.18 1011.94 1011.69 1011.43 1011.18 1010.93 1010.69 1010.47 1010.26 1010.08 1009.93 1009.83 1009.79 1009.81 1009.89 1010.04 1010.24 1010.48 1010.74 1011.01 1011.28 1011.54 1011.79 1012.05 1012.33 1012.64 1012.98 1013.36 1013.77 1014.21 1014.66
1012.83 1012.74 1012.65 1012.55 1012.45 1012.33 1012.18 1012.02 1011.83 1011.62 1011.40 1011.17 1010.93 1010.69 1010.44 1010.21 1010.00 1009.81 1009.67 1009.57 1009.55 1009.58 1009.67 1009.80 1009.98 1010.18 1010.39 1010.61 1010.84 1011.07 1011.33 1011.62 1011.94 1012.31 1012.71 1013.14 1013.59 1014.04
1012.54 1012.46 1012.37 1012.29 1012.21 1012.12 1012.01 1011.88 1011.73 1011.56 1011.37 1011.16 1010.92 1010.68 1010.42 1010.17 1009.92 1009.70 1009.51 1009.36 1009.26 1009.22 1009.24 1009.29 1009.39 1009.51 1009.66 1009.83 1010.02 1010.25 1010.51 1010.82 1011.18 1011.58 1012.02 1012.48 1012.95 1013.41
1012.24 1012.17 1012.11 1012.05 1011.99 1011.92 1011.83 1011.73 1011.61 1011.47 1011.30 1011.10 1010.88 1010.64 1010.37 1010.10 1009.83 1009.57 1009.33 1009.13 1008.96 1008.84 1008.77 1008.73 1008.74 1008.78 1008.86 1008.99 1009.15 1009.37 1009.65 1009.99 1010.39 1010.83 1011.31 1011.80 1012.29 1012.77
1011.89 1011.85 1011.81 1011.78 1011.74 1011.69 1011.63 1011.55 1011.45 1011.32 1011.16 1010.98 1010.76 1010.52 1010.26 1009.97 1009.69 1009.40 1009.13 1008.87 1008.64 1008.45 1008.29 1008.17 1008.10 1008.07 1008.09 1008.16 1008.31 1008.52 1008.81 1009.18 1009.61 1010.08 1010.59 1011.11 1011.62 1012.10
1011.43 1011.43 1011.43 1011.43 1011.42 1011.39 1011.35 1011.28 1011.19 1011.07 1010.92 1010.75 1010.54 1010.30 1010.04 1009.76 1009.47 1009.17 1008.88 1008.59 1008.32 1008.07 1007.85 1007.67 1007.52 1007.43 1007.40 1007.44 1007.57 1007.78 1008.07 1008.45 1008.89 1009.38 1009.90 1010.42 1010.93 1011.40
1010.85 1010.89 1010.93 1010.97 1010.99 1010.99 1010.97 1010.92 1010.84 1010.72 1010.57 1010.40 1010.19 1009.96 1009.71 1009.45 1009.17 1008.88 1008.58 1008.29 1008.00 1007.73 1007.48 1007.26 1007.07 1006.95 1006.88 1006.90 1007.00 1007.20 1007.48 1007.84 1008.26 1008.73 1009.22 1009.71 1010.19 1010.63
1010.15 1010.24 1010.33 1010.41 1010.47 1010.51 1010.51 1010.47 1010.40 1010.28 1010.13 1009.95 1009.75 1009.52 1009.28 1009.03 1008.77 1008.51 1008.24 1007.96 1007.69 1007.43 1007.18 1006.95 1006.76 1006.63 1006.55 1006.55 1006.63 1006.79 1007.04 1007.35 1007.72 1008.13 1008.55 1008.98 1009.39 1009.77
1009.41 1009.54 1009.68 1009.81 1009.92 1009.99 1010.02 1010.00 1009.92 1009.80 1009.64 1009.45 1009.24 1009.01 1008.78 1008.55 1008.31 1008.08 1007.85 1007.61 1007.38 1007.16 1006.94 1006.74 1006.58 1006.45 1006.37 1006.36 1006.41 1006.53 1006.72 1006.95 1007.23 1007.54 1007.86 1008.18 1008.49 1008.80
1008.72 1008.88 1009.06 1009.24 1009.40 1009.51 1009.56 1009.55 1009.47 1009.34 1009.16 1008.95 1008.72 1008.48 1008.25 1008.02 1007.81 1007.61 1007.42 1007.24 1007.07 1006.90 1006.73 1006.58 1006.45 1006.35 1006.29 1006.26 1006.28 1006.35 1006.45 1006.59 1006.75 1006.93 1007.12 1007.31 1007.50 1007.71
1008.17 1008.36 1008.59 1008.81 1009.00 1009.14 1009.21 1009.21 1009.12 1008.97 1008.76 1008.52 1008.26 1007.99 1007.74 1007.52 1007.32 1007.14 1006.99 1006.86 1006.74 1006.62 1006.52 1006.42 1006.34 1006.26 1006.21 1006.17 1006.16 1006.16 1006.18 1006.20 1006.24 1006.27 1006.31 1006.36 1006.43 1006.52
1007.86 1008.07 1008.32 1008.57 1008.80 1008.96 1009.04 1009.02 1008.92 1008.74 1008.49 1008.21 1007.90 1007.60 1007.32 1007.08 1006.87 1006.71 1006.58 1006.47 1006.39 1006.33 1006.27 1006.22 1006.17 1006.12 1006.07 1006.02 1005.96 1005.90 1005.83 1005.75 1005.65 1005.55 1005.45 1005.36 1005.31 1005.30
1007.82 1008.04 1008.30 1008.57 1008.81 1008.97 1009.05 1009.02 1008.89 1008.67 1008.38 1008.05 1007.70 1007.35 1007.03 1006.75 1006.53 1006.35 1006.22 1006.13 1006.06 1006.02 1005.98 1005.95 1005.92 1005.87 1005.82 1005.74 1005.65 1005.53 1005.38 1005.21 1005.01 1004.79 1004.57 1004.37 1004.20 1004.09
1008.05 1008.27 1008.53 1008.80 1009.03 1009.18 1009.24 1009.19 1009.03 1008.77 1008.44 1008.06 1007.65 1007.26 1006.90 1006.58 1006.32 1006.12 1005.96 1005.86 1005.78 1005.73 1005.68 1005.64 1005.59 1005.54 1005.46 1005.35 1005.22 1005.05 1004.84 1004.60 1004.32 1004.02 1003.71 1003.42 1003.17 1002.98
1008.49 1008.69 1008.94 1009.19 1009.39 1009.52 1009.55 1009.47 1009.28 1008.99 1008.63 1008.21 1007.77 1007.34 1006.95 1006.59 1006.29 1006.05 1005.86 1005.71 1005.59 1005.49 1005.41 1005.33 1005.24 1005.14 1005.02 1004.87 1004.70 1004.49 1004.24 1003.95 1003.63 1003.29 1002.94 1002.60 1002.29 1002.04
1009.03 1009.22 1009.44 1009.65 1009.83 1009.92 1009.92 1009.81 1009.60 1009.29 1008.90 1008.47 1008.02 1007.58 1007.16 1006.78 1006.44 1006.16 1005.92 1005.71 1005.53 1005.36 1005.21 1005.05 1004.90 1004.73 1004.55 1004.36 1004.14 1003.90 1003.63 1003.33 1003.00 1002.64 1002.28 1001.92 1001.58 1001.30
1009.59 1009.75 1009.94 1010.11 1010.24 1010.30 1010.27 1010.14 1009.91 1009.60 1009.23 1008.80 1008.36 1007.92 1007.50 1007.11 1006.75 1006.43 1006.14 1005.87 1005.61 1005.36 1005.11 1004.86 1004.62 1004.37 1004.12 1003.86 1003.60 1003.34 1003.05 1002.75 1002.43 1002.10 1001.75 1001.40 1001.07 1000.76
1010.07 1010.21 1010.35 1010.48 1010.57 1010.60 1010.55 1010.41 1010.19 1009.89 1009.55 1009.16 1008.75 1008.34 1007.93 1007.55 1007.18 1006.83 1006.49 1006.15 1005.82 1005.47 1005.13 1004.78 1004.43 1004.08 1003.75 1003.43 1003.13 1002.83 1002.54 1002.25 1001.95 1001.65 1001.34 1001.02 1000.70 1000.40
1010.43 1010.53 1010.64 1010.73 1010.79 1010.79 1010.73 1010.60 1010.40 1010.14 1009.83 1009.49 1009.13 1008.77 1008.40 1008.03 1007.66 1007.29 1006.91 1006.52 1006.11 1005.67 1005.23 1004.78 1004.33 1003.89 1003.47 1003.08 1002.73 1002.40 1002.10 1001.82 1001.55 1001.28 1001.00 1000.72 1000.44 1000.16
1010.64 1010.73 1010.81 1010.87 1010.90 1010.89 1010.83 1010.71 1010.54 1010.32 1010.07 1009.78 1009.48 1009.16 1008.83 1008.49 1008.13 1007.75 1007.34 1006.89 1006.42 1005.91 1005.38 1004.84 1004.30 1003.77 1003.28 1002.82 1002.42 1002.06 1001.74 1001.46 1001.20 1000.95 1000.72 1000.47 1000.22 999.97
Thickness
5666 5667 5669 5672 5673 5675 5677 5679 5679 5682 5687 5695 5699 5704 5707 5709 5711 5715 5719 5721 5723 5725 5726 5728 5730 5731 5732 5733 5734 5735 5735 5735 5735 5735 5734 5733 5732 5731
5661 5663 5664 5668 5669 5671 5673 5675 5677 5677 5681 5689 5692 5697 5700 5703 5705 5709 5713 5715 5717 5719 5721 5724 5725 5727 5728 5730 5731 5732 5732 5733 5733 5732 5732 5731 5730 5729
5662 5662 5662 5662 5665 5667 5669 5671 5672 5673 5674 5681 5687 5691 5693 5696 5700 5703 5706 5709 5713 5714 5716 5718 5720 5722 5724 5725 5727 5728 5729 5729 5729 5729 5729 5728 5727 5726
5659 5659 5659 5660 5660 5662 5664 5666 5668 5669 5670 5672 5678 5682 5685 5689 5692 5695 5699 5704 5706 5709 5710 5712 5714 5717 5719 5720 5722 5724 5725 5725 5726 5726 5726 5725 5724 5723
5657 5657 5657 5657 5657 5659 5659 5660 5662 5665 5666 5666 5670 5674 5677 5682 5684 5688 5692 5696 5699 5702 5704 5706 5708 5711 5713 5715 5716 5718 5720 5721 5722 5722 5721 5721 5721 5720
5656 5655 5655 5655 5655 5655 5656 5657 5658 5659 5660 5661 5663 5666 5670 5674 5676 5678 5683 5688 5691 5696 5698 5701 5703 5705 5707 5709 5711 5712 5714 5715 5716 5717 5717 5717 5717 5716
5657 5656 5655 5652 5650 5650 5652 5653 5654 5654 5656 5656 5657 5659 5662 5664 5667 5671 5673 5677 5683 5687 5690 5694 5697 5700 5702 5703 5704 5706 5707 5709 5710 5710 5711 5712 5712 5711
5656 5655 5654 5652 5650 5647 5647 5647 5647 5649 5651 5652 5653 5654 5656 5658 5660 5661 5664 5666 5670 5678 5679 5684 5689 5691 5696 5698 5700 5700 5701 5702 5702 5704 5705 5705 5706 5706
5657 5656 5654 5653 5649 5650 5649 5646 5647 5646 5644 5647 5648 5649 5651 5654 5654 5655 5657 5658 5661 5667 5669 5674 5681 5684 5689 5692 5692 5693 5694 5695 5696 5697 5698 5699 5699 5700
5658 5656 5654 5653 5650 5648 5648 5648 5648 5649 5647 5646 5647 5647 5648 5649 5650 5650 5651 5653 5657 5661 5663 5664 5673 5677 5683 5685 5686 5686 5687 5688 5689 5690 5691 5692 5693 5693
5659 5656 5653 5651 5647 5643 5644 5645 5646 5646 5645 5642 5641 5642 5642 5643 5643 5645 5646 5647 5650 5656 5659 5659 5665 5669 5673 5677 5680 5680 5681 5682 5683 5683 5684 5685 5686 5685
5659 5657 5650 5647 5644 5641 5642 5643 5643 5643 5643 5643 5641 5641 5642 5643 5642 5642 5644 5643 5645 5649 5655 5654 5657 5658 5662 5670 5672 5674 5675 5676 5676 5677 5678 5679 5679 5677
5658 5656 5653 5645 5641 5639 5638 5640 5639 5637 5639 5639 5639 5640 5641 5642 5642 5642 5642 5641 5642 5643 5648 5648 5649 5650 5652 5657 5662 5666 5668 5670 5671 5671 5671 5672 5672 5671
5654 5653 5649 5641 5638 5636 5636 5635 5633 5633 5635 5635 5635 5636 5636 5638 5638 5639 5640 5639 5640 5641 5642 5642 5641 5642 5643 5646 5651 5657 5659 5661 5663 5664 5666 5667 5666 5666
5649 5644 5640 5636 5634 5634 5631 5630 5630 5632 5632 5631 5631 5631 5632 5632 5633 5634 5635 5636 5636 5637 5637 5637 5636 5636 5637 5639 5643 5647 5649 5652 5655 5656 5658 5660 5660 5660
5644 5639 5633 5631 5630 5628 5628 5628 5628 5628 5626 5626 5626 5626 5626 5627 5627 5628 5629 5630 5630 5632 5634 5633 5633 5633 5632 5634 5636 5640 5642 5644 5648 5649 5650 5652 5653 5655
5639 5636 5632 5629 5626 5625 5623 5622 5620 5620 5619 5619 5619 5620 5620 5621 5621 5622 5622 5623 5623 5625 5626 5628 5628 5628 5629 5630 5631 5635 5637 5639 5640 5641 5641 5643 5646 5648
5629 5627 5623 5620 5617 5615 5614 5613 5612 5611 5610 5610 5610 5610 5611 5612 5613 5614 5614 5615 5616 5617 5618 5619 5620 5621 5623 5626 5627 5629 5632 5634 5635 5635 5634 5635 5639 5642
5620 5617 5613 5609 5606 5605 5603 5603 5602 5602 5601 5601 5601 5601 5602 5603 5604 5605 5606 5606 5607 5608 5610 5611 5612 5612 5614 5618 5624 5622 5624 5626 5627 5628 5628 5628 5631 5635
5608 5605 5601 5598 5595 5594 5592 5591 5591 5591 5591 5591 5592 5592 5592 5592 5594 5595 5596 5595 5597 5598 5601 5602 5602 5602 5602 5605 5610 5615 5614 5616 5618 5619 5621 5622 5624 5626
5597 5593 5590 5587 5585 5584 5582 5581 5581 5580 5580 5580 5581 5580 5580 5581 5582 5582 5584 5584 5585 5588 5589 5591 5591 5590 5593 5596 5600 5606 5609 5608 5608 5610 5611 5612 5614 5617
5586 5583 5579 5576 5575 5574 5572 5571 5571 5571 5570 5569 5568 5568 5568 5568 5569 5570 5571 5572 5573 5574 5576 5578 5579 5580 5582 5584 5588 5593 5598 5600 5600 5600 5600 5602 5605 5609
5574 5571 5569 5566 5564 5563 5562 5561 5560 5560 5558 5557 5557 5556 5556 5556 5556 5556 5557 5558 5559 5560 5562 5564 5566 5567 5570 5572 5576 5581 5585 5588 5591 5593 5595 5596 5595 5597